Regional Weather Roundup
Issued by NWS Sterling, VA

Home | Current Version | Previous Version | Text Only | Print | Product List | Glossary Off
Versions: 1 2 3 4 5 6 7 8 9 10 11 12 13 14 15 16 17 18 19 20 21 22 23 24 25 26 27

000
ASUS41 KLWX 270611
RWRLWX

REGIONAL WEATHER ROUNDUP
NATIONAL WEATHER SERVICE BALTIMORE MD/WASHINGTON DC
200 AM EDT THU APR 27 2017

Note: "FAIR" indicates few or no clouds below 12,000 feet
with no significant weather and/or obstructions to visibility.
 TC=TEMPERATURE CELSIUS

 * =Non NWS site. Station does not report precipitation (e.g. rain,
    snow, etc.), thunder, or fog.

DCZ001-MDZ009-015-VAZ040>042-051-053>054-270700-
WASHINGTON METRO

CITY           SKY/WX    TMP DP  RH WIND       PRES   REMARKS
WASHINGTON NAT PTCLDY    61  58  90 CALM      29.84F
DULLES         PTCLDY    57  55  93 CALM      29.82F
ANDREWS AFB    CLEAR     56  55  96 CALM      29.83F
FT BELVOIR     CLEAR     55  54  94 CALM      29.83S FOG
QUANTICO       CLEAR     61  60  97 SE3       29.84S
COLLEGE PARK*  PTCLDY    54  53  98 CALM      29.84S
LEESBURG*      CLEAR     59  59 100 SE3       29.84F
MANASSAS*        N/A     59  58  96 SE3       29.83F

$$

MDZ006>007-011-014-270700-
BALTIMORE METRO

CITY           SKY/WX    TMP DP  RH WIND       PRES   REMARKS
BWI AIRPORT    PTCLDY    54  54 100 CALM      29.84S
MD SCIENCE CTR   N/A     60  56  86 MISG      29.85S
MARTIN STATE   FOG       55  55 100 CALM      29.86S VSB 1
ANNAPOLIS      CLEAR     58  57  97 CALM      29.84S FOG
FORT MEADE*    PTCLDY    52  50  93 CALM      29.86F

$$

MDZ012-015-019>023-270700-
MARYLAND EASTERN SHORE

CITY           SKY/WX    TMP DP  RH WIND       PRES   REMARKS
OCEAN CITY     CLEAR     52  51  97 CALM      29.86S FOG
SALISBURY      FOG       54  54 100 CALM      29.85F VSB 1/2
BAY BRIDGE AP* CLEAR     57  55  94 CALM      29.84F FOG
CAMBRIDGE*     FOG       54  54 100 SE3       29.85S VSB 1/4
EASTON*        CLEAR     58  56  94 S3        29.88F FOG

$$

MDZ017>025-270700-
SOUTHERN MARYLAND

CITY           SKY/WX    TMP DP  RH WIND       PRES   REMARKS
PATUXENT RIVER CLEAR     59  59 100 SE3       29.84F
ST INIGOES     CLEAR     61  58  90 E6        29.83F
LEONARDTOWN*   CLEAR     57  55  94 SE3       29.86S

$$

MDZ003>005-270700-
NORTH CENTRAL MARYLAND

CITY           SKY/WX    TMP DP  RH WIND       PRES   REMARKS
FREDERICK*     NOT AVBL
HAGERSTOWN APT CLEAR     60  56  86 CALM      29.81F
WESTMINSTER*   PTCLDY    57  57 100 SE5       29.84S

$$

MDZ501>502-270700-
WESTERN MARYLAND

CITY           SKY/WX    TMP DP  RH WIND       PRES   REMARKS
OAKLAND*       CLEAR     55  54  94 SE12      29.81F
CUMBERLAND*    CLEAR     59  59 100 N3        29.82F

$$

VAZ025>031-270700-
SHENANDOAH VALLEY

CITY           SKY/WX    TMP DP  RH WIND       PRES   REMARKS
WINCHESTER*    CLEAR     54  54 100 CALM      29.80S FOG
FRONT ROYAL*   CLEAR     57  57 100 CALM      29.79S
LURAY*         FOG       55  55 100 CALM      29.80F VSB 1
NEW MARKET*    CLEAR     55  54  96 CALM      29.80S
STAUNTON*      CLEAR     55  54  95 CALM      29.83F
WAYNESBORO*    CLEAR     59  59  98 CALM      29.83S

$$

WVZ021-048>050-054>055-270700-
EASTERN WEST VIRGINIA PANHANDLE

CITY           SKY/WX    TMP DP  RH WIND       PRES   REMARKS
MARTINSBURG    CLEAR     57  54  89 N3        29.80F
PETERSBURG*    CLEAR     56  56  98 CALM      29.79F

$$

VAZ036>039-050-270700-
CENTRAL FOOTHILLS

CITY           SKY/WX    TMP DP  RH WIND       PRES   REMARKS
CHARLOTTESVILL CLEAR     63  60  90 CALM      29.81S
CULPEPER*      FOG       57  57 100 CALM      29.83S VSB 1/2
ORANGE*        FOG       55  54  94 CALM      29.82S VSB 3/4
GORDONSVILLE*  PTCLDY    57  57 100 CALM      29.81S FOG
WARRENTON*     MOCLDY    59  56  88 CALM      29.82F

$$

VAZ055>057-270700-
NORTH AND CENTRAL PIEDMONT

CITY           SKY/WX    TMP DP  RH WIND       PRES   REMARKS
FREDERICKSBRG* CLEAR     58  58 100 CALM      29.82S
STAFFORD*      CLEAR     58  58 100 CALM      29.87S

$$

NCZ024-NYZ072-PAZ021-071-VAZ022-071-270700-
OTHER REGIONAL OBSERVATIONS

CITY           SKY/WX    TMP DP  RH WIND       PRES   REMARKS
NEW YORK CITY  CLOUDY    58  58 100 CALM      29.87S FOG
PHILADELPHIA   CLOUDY    62  56  80 CALM      29.85F
PITTSBURGH     PTCLDY    63  57  81 SE5       29.69F
ROANOKE        CLEAR     64  60  87 CALM      29.83F
RICHMOND       CLEAR     61  60  97 SE5       29.82F
RALEIGH        CLEAR     68  64  87 SW9       29.85R

$$

ANZ530>537-270700-
MARINE OBSERVATIONS

STATION/POSITION TIME  TEMP    WIND        PRES
                       AIR SEA DIR/SP/G
                 (UTC) (F)     (DEG/KT/KT) (MB)
THOMAS PT LIGHT  0600   58 57  130/  2/  2   N/A
BALT KEY BRIDGE  0548   59     150/  4/  4 1010.5F
COVE POINT       0548   59     180/ 10/ 11 1011.0F
LEWISETTA        0548   61 62  130/  4/  4 1010.1F
SOLOMONS ISLAND  0548   59 60  110/  5/  5   N/A
PINEY POINT      0548          140/ 10/ 10   N/A

$$





USA.gov is the U.S. government's official web portal to all federal, state and local government web resources and services.